Location: Dammartin
(48.9032°N, 1.6195°E)
Time: 15:41:25
(UTC+00:00)

SL-4 R/B - Pass Details

Date: 03 February 2023
Orbit: 423 x 637 km, 51.6° (Epoch: 31 March)

Event Time Altitude Azimuth Distance (km) Brightness Sun altitude
Rises 18:31:29 0° 282° (WNW) 2,417 6.7 -16.2°
Reaches altitude 10° 18:33:35 10° 287° (WNW) 1,569 5.4 -16.6°
Maximum altitude 18:37:03 56° 6° (N) 558 1.9 -17.1°
Enters shadow 18:37:58 41° 58° (ENE) 688 2.1 -17.3°
